Nenana, AK

5:43 PM AKST en Noviembre 16, 2018 (GMT -0900)
Nenana Municipal

Tiempo Historia de PANN - Septiembre, 2018

Change the Weather History Date:

Viernes, Septiembre 14, 2018

  Actual Average Record
Temperature  
Temperatura media 55 ° F -  
Temperatura máxima 60 ° F 56 ° F 73 ° F (2014)
Temperatura mínima 50 ° F 34 ° F 32 ° F (2010)
Degree Days  
Grados día de calefacción 10    
Growing Degree Days 5 (Base 50)    
Moisture  
Punto de rocío 35 ° F    
Average Humidity 51    
Maximum Humidity 69    
Minimum Humidity 29    
Precipitación  
Precipitación 0.00 pul - - ()
Presión al nivel del mar  
Presión al nivel del mar 30.10 pul    
Viento  
Velocidad del viento 11 mph (ENE)    
Velocidad máxima del viento 17 mph    
Max Gust Speed 25 mph    
Visibilidad 10 Millas    
Eventos      
Averages and records for this station are not official NWS values.
T = Trace of Precipitation, MM = Missing Value Source: NWS Daily Summary

Daily Weather History Graph

Daily Weather History Graph

Search for Another Location

Airport or City:

Astronomía

Sep. 14, 2018 Salida Puesta
Hora real 7:16 AM AKDT 8:25 PM AKDT
Crepúsculo civil 6:26 AM AKDT 9:14 PM AKDT
Crepúsculo náutico 5:22 AM AKDT 10:17 PM AKDT
Crepúsculo astronómico 4:02 AM AKDT 11:36 PM AKDT
Luna 2:34 PM AKDT (9/14) 9:53 PM AKDT (9/14)
Horas de luz 14h 48m
Horas de luz
13h 08m
Creciente, 29% of the Moon is Illuminated
Sep 14
Creciente
Sep 16
Cuarto creciente
Sep 24
Luna llena
Oct 2
Cuarto menguante
Oct 8
Nueva

Hourly Weather History & Observations

Hora (AKDT) Temp. Vientos helados Punto de rocío Humedad Presión Visibilidad Wind Dir Velocidad del viento Velocidad de ráfagas Precip Eventos Condiciones
12:53 AM 52.0 ° F - 37.0 ° F 57% 30.20 pul 10.0 mi Este 13.8 mph 20.7 mph N/A   Despejado
1:53 AM 51.1 ° F - 37.0 ° F 59% 30.19 pul 10.0 mi ENE 13.8 mph 19.6 mph N/A   Despejado
2:53 AM 50.0 ° F - 37.0 ° F 61% 30.18 pul 10.0 mi Este 16.1 mph 24.2 mph N/A   Despejado
3:53 AM 48.9 ° F - 37.0 ° F 64% 30.18 pul 10.0 mi Este 16.1 mph 21.9 mph N/A   Despejado
4:53 AM 48.0 ° F - 37.0 ° F 66% 30.18 pul 10.0 mi Este 13.8 mph - N/A   Despejado
5:53 AM 46.9 ° F - 36.0 ° F 66% 30.17 pul 10.0 mi Este 13.8 mph 24.2 mph N/A   Despejado
6:53 AM 46.0 ° F 41.0 ° F 36.0 ° F 68% 30.17 pul 10.0 mi ENE 10.4 mph - N/A   Despejado
7:53 AM 48.9 ° F - 35.1 ° F 59% 30.17 pul 10.0 mi Este 13.8 mph 23.0 mph N/A   Despejado
8:53 AM 48.9 ° F - 35.1 ° F 59% 30.17 pul 10.0 mi ENE 13.8 mph 21.9 mph N/A   Despejado
9:53 AM 51.1 ° F - 35.1 ° F 54% 30.17 pul 10.0 mi ENE 11.5 mph 21.9 mph N/A   Despejado
10:53 AM 51.1 ° F - 35.1 ° F 54% 30.17 pul 10.0 mi Este 17.3 mph 25.3 mph N/A   Despejado
12:53 PM 55.0 ° F - 34.0 ° F 45% 30.14 pul 10.0 mi ENE 12.7 mph 23.0 mph N/A   Despejado
1:53 PM 57.0 ° F - 33.1 ° F 40% 30.12 pul 10.0 mi Este 11.5 mph - N/A   Despejado
2:53 PM 59.0 ° F - 33.1 ° F 38% 30.11 pul 10.0 mi ENE 11.5 mph 18.4 mph N/A   Despejado
3:53 PM 60.1 ° F - 30.0 ° F 32% 30.10 pul 10.0 mi NE 11.5 mph - N/A   Despejado
4:53 PM 59.0 ° F - 30.9 ° F 35% 30.09 pul 10.0 mi ENE 4.6 mph - N/A   Despejado
5:53 PM 57.9 ° F - 32.0 ° F 37% 30.07 pul 10.0 mi Este 6.9 mph - N/A   Despejado
6:53 PM 57.9 ° F - 34.0 ° F 41% 30.06 pul 10.0 mi Sin viento Sin viento - N/A   Despejado
7:53 PM 55.9 ° F - 34.0 ° F 44% 30.05 pul 10.0 mi NE 4.6 mph - N/A   Despejado
8:53 PM 55.0 ° F - 33.1 ° F 43% 30.04 pul 10.0 mi NE 5.8 mph - N/A   Despejado
9:53 PM 54.0 ° F - 35.1 ° F 49% 30.04 pul 10.0 mi ENE 4.6 mph - N/A   Despejado
10:53 PM 54.0 ° F - 35.1 ° F 49% 30.03 pul 10.0 mi ENE 6.9 mph - N/A   Despejado
11:53 PM 54.0 ° F - 35.1 ° F 49% 30.01 pul 10.0 mi ENE 6.9 mph - N/A   Despejado